Regional Weather Roundup
Issued by NWS Grand Forks, ND

Home | Current Version | Previous Version | Graphics & Text | Print | Product List | Glossary On
Versions: 1 2 3 4 5 6 7 8 9 10 11 12 13 14 15 16 17 18 19 20 21 22 23 24 25 26 27 28 29 30 31 32 33 34 35 36 37 38 39 40 41 42 43 44 45 46 47 48 49 50
000
ASUS43 KFGF 250631
RWRFGF
PRAIRIE TO PINES  WEATHER ROUNDUP
NATIONAL WEATHER SERVICE EASTERN NORTH DAKOTA/GRAND FORKS ND
100 AM CDT SUN SEP 25 2016

 **SATELLITE DATA USED TO AUGMENT SKY COVER AT AUTOMATED STATIONS**
 *****  WEATHER ACROSS EASTERN NORTH DAKOTA  *****

CITY           SKY/WX    TMP DP  RH WIND       PRES   REMARKS
GRAND FORKS    PTCLDY    68  65  90 S13       29.73S
6HR MIN TEMP:  68; 6HR MAX TEMP:  72; 6HR PCP:  0.02;

GRAND FRKS AFB PTCLDY    67  66  97 S10       29.73S
DEVILS LAKE    CLEAR     61  54  77 SW8       29.71F
6HR MIN TEMP:  61; 6HR MAX TEMP:  71;

FARGO          MOCLDY    68  65  90 S12       29.78S
WAHPETON ARPT  PTCLDY    64  63  94 S10       29.81S
$$

 ***** WEATHER ACROSS CENTRAL AND WESTERN NORTH DAKOTA  *****

CITY           SKY/WX    TMP DP  RH WIND       PRES   REMARKS
BISMARCK       MOCLDY    53  48  83 SW9       29.77R
6HR MIN TEMP:  53; 6HR MAX TEMP:  72;

MINOT          CLOUDY    56  53  90 NW20      29.75S
6HR MIN TEMP:  56; 6HR MAX TEMP:  73;

JAMESTOWN      CLEAR     57  50  77 SW10      29.76R
6HR MIN TEMP:  56; 6HR MAX TEMP:  73;

MINOT AFB      CLOUDY    55  52  88 NW21G30   29.75R
GARRISON         N/A     55  55 100 N16       29.75R
WILLISTON      RAIN      51  47  86 NW22G31   29.94R FOG
6HR MIN TEMP:  51; 6HR MAX TEMP:  55; 6HR PCP:  0.13;

DICKINSON      LGT RAIN  48  46  93 NW28G36   29.88R
6HR MIN TEMP:  48; 6HR MAX TEMP:  60; 6HR PCP:  0.08;

HETTINGER      RAIN      48  46  93 NW33G45   29.91R FOG
6HR MIN TEMP:  48; 6HR MAX TEMP:  55; 6HR PCP:  0.15;

$$

 *****  OTHER AIRPORT OBSERVATIONS IN OUR AREA  *****

CITY           SKY/WX    TMP DP  RH WIND       PRES   REMARKS
WALHALLA       FAIR      66  66 100 S9        29.69S
GRAFTON AIRPOR FAIR      66  66 100 S14       29.73S
VALLEY CITY AR FAIR      55  54  94 SW7       29.79R
CANDO          FAIR      54  54 100 S5        29.72S
CAVALIER APRT  CLOUDY    66  66 100 S8        29.70S FOG
GWINNER        FAIR      57  52  82 SW9       29.82R
SHEYENNE NWR     N/A     64  60  86 SW8       29.95S
ROLLA          FAIR      59  59 100 NW6       29.70S
 ***** THE ABOVE OBSERVATIONS ARE NON NWS ARE NOT QUALITY
       CONTROLLED AND MAY MIS-REPORT RAIN FOR SNOW...
$$

  *****  WEATHER ACROSS NORTHERN MINNESOTA  *****

CITY           SKY/WX    TMP DP  RH WIND       PRES   REMARKS
FLAG ISLAND    CLOUDY    63  61  94 SE15      29.81F
WARROAD        CLOUDY    64  61  88 SE15G21   29.82F
ROSEAU         CLOUDY    66  61  82 SE16      29.78F
HALLOCK        CLOUDY    68  64  88 SE17      29.72F
THF RVR FALLS  CLOUDY    67  64  90 S15       29.79F
6HR MIN TEMP:  65; 6HR MAX TEMP:  68; 6HR PCP:  0.01;

BAUDETTE       CLOUDY    63  61  93 SE13      29.84F
6HR MIN TEMP:  62; 6HR MAX TEMP:  65; 6HR PCP:  0.55;

WASKISH        CLOUDY    64  63  94 SE10G16   29.86F
CROOKSTON      MOCLDY    66  66 100 S18G24    29.77S
STEPHEN NDAWN    N/A     68  64  88 S10         N/A
GREENBUSH NDAW   N/A     64  64 100 SE13        N/A
$$
  *****  WEATHER ACROSS CENTRAL AND WEST MINNESOTA  *****

CITY           SKY/WX    TMP DP  RH WIND       PRES   REMARKS
FOSSTON        CLOUDY    66  63  88 S14G20    29.81F
BEMIDJI        CLOUDY    65  63  94 SE13G18   29.85F
PARK RAPIDS    CLOUDY    67  63  87 SE18      29.86F
6HR MIN TEMP:  66; 6HR MAX TEMP:  67; 6HR PCP:  0.11;

ELBOW LAKE     CLOUDY    67  66  97 SE13G20   29.84F
WADENA         CLOUDY    64  64 100 SE16G23   29.86F
DETROIT LAKES  CLOUDY    66  64  94 S13       29.84F
MOORHEAD       PTCLDY    64  64 100 S10       29.79F
FERGUS FALLS   CLOUDY    68  68 100 S13       29.84F
MORRIS MN      CLOUDY    68  66  94 SE10      29.84F FOG
STAPLES        DRIZZLE   64  63  94 SE12      29.87F
$$
  *****  WEATHER ELSEWHERE ACROSS MINNESOTA  *****

CITY           SKY/WX    TMP DP  RH WIND       PRES   REMARKS
DULUTH         CLOUDY    61  60  97 SE10      30.00F
6HR MIN TEMP:  61; 6HR MAX TEMP:  62;

INTRNTL FALLS  CLOUDY    63  59  87 S8        29.92F
6HR MIN TEMP:  62; 6HR MAX TEMP:  64;

ELY            CLOUDY    61  55  82 S8        29.99F
CLOQUET        CLOUDY    61  57  88 SE5       29.98F
WHEATON        PTCLDY    66  66 100 SE9       29.84F
BRAINERD       LGT RAIN  64  63  96 SE12G22   29.91F FOG
6HR MIN TEMP:  64; 6HR MAX TEMP:  66; 6HR PCP:  0.27;

HIBBING        CLOUDY    61  59  93 SE12      29.97F
6HR MIN TEMP:  59; 6HR MAX TEMP:  61;

ALEXANDRIA     LGT RAIN  67  67 100 S10       29.88F
6HR MIN TEMP:  66; 6HR MAX TEMP:  68; 6HR PCP:  0.03;

SAINT CLOUD    CLOUDY    66  65  96 SE14      29.92F
6HR MIN TEMP:  66; 6HR MAX TEMP:  68; 6HR PCP:  0.03;

MINNEAPOLIS    LGT RAIN  68  64  87 SE9       29.94F
6HR MIN TEMP:  68; 6HR MAX TEMP:  68;

$$

  *****  WEATHER ACROSS SOUTH DAKOTA  *****

CITY           SKY/WX    TMP DP  RH WIND       PRES   REMARKS
SIOUX FALLS    MOCLDY    69  67  93 SW6       29.91S
6HR MIN TEMP:  69; 6HR MAX TEMP:  73;

BROOKINGS      PTCLDY    64  61  88 W22       29.90R
WATERTOWN      PTCLDY    62  53  72 W20G25    29.89R
6HR MIN TEMP:  62; 6HR MAX TEMP:  71;

HURON          CLEAR     55  44  66 W13       29.91S
6HR MIN TEMP:  55; 6HR MAX TEMP:  75;

SISSETON         N/A     64  63  96 SW7       29.82F
ABERDEEN       CLEAR     53  45  74 SW12      29.85S
6HR MIN TEMP:  53; 6HR MAX TEMP:  75;

MITCHELL       CLEAR     58  45  62 W9        29.95R
PIERRE         MOCLDY    55  47  74 W22G29    29.91F
6HR MIN TEMP:  53; 6HR MAX TEMP:  72;

MOBRIDGE       CLOUDY    56  51  84 SW16      29.74F
RAPID CITY     CLOUDY    55  39  54 NW21      30.07R
6HR MIN TEMP:  50; 6HR MAX TEMP:  55; 6HR PCP: TRACE;

$$

  *****  SOME WEATHER IN NEARBY STATES *****

CITY           SKY/WX    TMP DP  RH WIND       PRES   REMARKS
GLASGOW MT     CLEAR     48  40  73 W20       30.12R
6HR MIN TEMP:  48; 6HR MAX TEMP:  54;

GREAT FALLS MT CLEAR     43  38  82 S8        30.30S
6HR MIN TEMP:  41; 6HR MAX TEMP:  58;

CHEYENNE WY    CLEAR     44  35  70 NW8G18    30.32R
6HR MIN TEMP:  44; 6HR MAX TEMP:  52;

SCOTTSBLUFF NE CLEAR     44  40  85 W6        30.25R
6HR MIN TEMP:  44; 6HR MAX TEMP:  60;

OMAHA NE       LGT RAIN  69  66  90 SE7       29.95F
6HR MIN TEMP:  69; 6HR MAX TEMP:  73; 6HR PCP:  0.02;

DES MOINES IA  LGT RAIN  70  69  97 SE10      30.00S
6HR MIN TEMP:  69; 6HR MAX TEMP:  83; 6HR PCP:  1.50;

DAVENPORT IA   CLOUDY    68  65  90 E7        30.06S
6HR MIN TEMP:  68; 6HR MAX TEMP:  74;

CHICAGO IL     CLEAR     68  63  84 E7        30.12S
6HR MIN TEMP:  68; 6HR MAX TEMP:  70;

EAU CLAIRE WI  CLOUDY    63  60  90 SE8       30.03F
6HR MIN TEMP:  63; 6HR MAX TEMP:  66;

LA CROSSE WI   MOCLDY    66  62  87 SE8       30.05F
6HR MIN TEMP:  66; 6HR MAX TEMP:  70;

$$

  *****  SOME NATIONAL WEATHER *****

CITY           SKY/WX    TMP DP  RH WIND       PRES   REMARKS
LA GUARDIA NY  CLEAR     62  44  51 N9        30.15R
6HR MIN TEMP:  62; 6HR MAX TEMP:  68;

RALEIGH NC     MOCLDY    74  71  91 E9        30.09R
6HR MIN TEMP:  70; 6HR MAX TEMP:  79;

ATLANTA GA     PTCLDY    74  67  78 S3        30.06S
6HR MIN TEMP:  74; 6HR MAX TEMP:  84;

NEW ORLEANS LA CLEAR     78  75  90 CALM      30.00F
6HR MIN TEMP:  78; 6HR MAX TEMP:  81;

OKLAHOMA CITY  RAIN      70  69  97 CALM      30.00S
6HR MIN TEMP:  70; 6HR MAX TEMP:  81; 6HR PCP:  0.22;

ALBUQUERQUE NM CLEAR     59  34  39 N8        30.19R
6HR MIN TEMP:  59; 6HR MAX TEMP:  69;

SALT LAKE CITY CLEAR     51  43  74 CALM      30.38R
6HR MIN TEMP:  50; 6HR MAX TEMP:  62;

LOS ANGELES CA CLEAR     71  52  50 SE5       29.97R
6HR MIN TEMP:  69; 6HR MAX TEMP:  78;

BOISE ID       CLEAR    C1F1C2F2C3F3C4F4C5F5C6F6C7F7C8F8C9F9CaFaCbFbCcFcCd!


USA.gov is the U.S. government's official web portal to all federal, state and local government web resources and services.